Wind_Speed
7 6 7 9 9 8 11 13 13 13 12 10 10 10 11 9 7 6 6 5 5 4 3 2 2 1 1 2 2 2 13 26 27 29 24 18 25 20 17 20 22 19 12 10 8 4 3 2 4 3 2 1 2 1 1 2 2 2 2 3 4 3 3 3 5 5 6 7 6 3 2 6 4 3 4 3 6 8 8 9 8 10 11 12 16 18 17 14
8 7 8 9 8 9 12 13 13 12 11 10 10 10 12 12 10 7 6 6 4 2 2 4 5 6 5 4 3 2 5 17 24 25 22 24 23 15 15 21 21 19 13 10 10 6 3 2 3 2 1 1 1 1 0 1 3 2 0 4 3 3 3 4 7 7 6 8 9 5 2 4 5 3 4 3 3 6 6 7 8 11 12 13 15 15 14 14
9 8 8 8 9 10 12 12 12 12 10 10 9 9 11 13 13 9 8 9 9 8 8 7 4 2 4 6 5 2 1 10 19 18 24 27 19 13 16 19 19 19 14 9 9 6 4 3 2 1 0 1 2 1 0 2 3 0 1 5 3 5 3 5 8 8 6 7 9 7 3 2 3 2 2 2 2 4 2 5 6 9 12 12 13 14 15 15
9 8 8 9 9 11 11 12 11 11 10 9 9 9 10 12 13 10 10 13 15 15 15 15 16 15 9 1 6 2 2 3 11 15 26 26 16 12 14 17 19 18 14 9 9 7 4 3 2 1 0 2 2 0 1 4 3 0 1 4 5 4 3 7 8 7 6 5 7 7 4 3 2 2 1 3 3 3 2 3 2 9 14 13 13 14 15 16
8 8 9 9 10 11 11 11 11 10 9 9 9 9 10 11 12 10 11 14 13 10 10 10 12 15 18 12 2 5 4 0 8 19 28 23 13 11 12 15 18 16 15 11 9 8 5 3 1 2 2 2 2 1 2 4 2 0 2 4 5 4 4 8 8 6 5 4 4 5 5 4 1 1 3 4 5 3 5 4 3 11 14 14 15 15 16 17
8 8 9 9 10 11 11 10 10 9 9 9 9 10 11 11 13 13 11 10 5 2 4 6 6 7 12 17 14 8 3 2 9 23 28 20 10 12 12 13 16 14 14 14 11 9 7 5 2 2 2 2 3 3 3 3 2 1 3 4 4 3 4 6 7 6 4 3 5 5 4 3 1 1 5 7 6 8 7 4 10 15 16 16 17 16 17 17
7 7 8 9 10 10 9 8 8 8 8 9 9 10 12 14 19 20 16 12 10 8 6 6 6 4 1 8 20 20 10 5 14 25 25 15 9 12 11 11 14 13 15 18 13 8 7 8 6 2 1 3 2 3 3 2 1 1 3 5 4 3 4 5 5 5 3 4 5 4 3 3 5 2 5 10 9 8 9 13 18 19 19 19 18 17 18 18
6 6 8 9 9 8 7 7 7 7 8 8 8 9 10 13 16 17 15 14 16 19 14 4 3 2 1 1 7 13 10 9 20 25 20 11 10 12 10 11 14 14 17 19 13 6 4 7 5 1 1 4 1 2 2 1 3 4 4 5 3 2 4 4 2 5 4 3 3 4 4 4 4 4 8 10 9 10 14 17 19 19 19 18 17 17 18 18
5 6 7 8 7 7 6 6 6 6 7 7 7 7 7 7 8 9 10 10 12 18 21 17 7 1 4 4 1 7 10 14 20 22 16 10 11 11 10 12 13 14 16 17 15 9 4 4 3 1 3 5 2 2 4 3 3 5 4 4 3 2 3 4 4 8 6 2 4 6 7 4 4 5 8 9 8 11 14 16 16 17 17 15 15 17 18 18
5 5 7 7 7 6 5 4 5 6 5 5 6 6 5 5 5 6 7 9 10 12 17 20 19 17 13 5 4 9 9 17 20 20 15 11 11 10 12 15 13 14 12 14 17 12 6 3 1 1 4 4 2 2 4 4 3 3 3 1 3 2 0 5 8 9 5 1 5 9 9 4 3 1 5 7 8 10 13 15 14 15 15 14 14 16 17 18
4 5 7 6 6 5 4 4 5 5 5 5 6 5 4 4 4 4 5 8 10 11 12 10 15 23 23 13 11 9 9 18 22 21 16 11 12 13 15 15 14 14 10 11 14 11 8 5 1 1 1 2 2 2 3 3 1 1 3 2 2 4 2 7 12 10 7 2 5 8 7 3 5 4 4 7 7 10 13 14 14 14 14 14 14 15 16 17
5 6 7 7 6 5 4 5 4 5 6 6 6 5 4 3 2 3 4 6 6 8 10 9 8 7 11 16 13 7 9 20 24 20 17 13 13 15 15 15 16 14 11 11 10 10 11 6 7 9 3 3 1 1 3 2 1 0 4 2 6 7 2 10 13 10 11 5 6 9 7 2 8 6 6 8 8 11 13 14 14 13 13 13 13 12 14 16
7 7 7 7 6 5 4 4 5 5 6 6 6 5 5 4 3 2 1 4 6 6 7 12 15 8 5 9 8 9 12 21 25 18 17 16 12 11 15 17 19 17 13 13 11 12 13 11 15 12 2 2 2 2 2 0 0 2 5 3 7 7 3 12 11 9 11 4 7 11 7 3 8 7 7 9 9 12 12 12 12 11 11 11 11 11 13 15
8 8 8 7 6 5 4 4 5 5 6 5 4 5 6 7 8 6 4 4 5 6 6 6 11 14 12 5 4 12 16 21 28 24 20 19 13 10 11 11 16 20 16 13 12 11 12 13 15 10 2 4 2 1 2 2 3 5 5 1 6 6 6 12 7 8 9 3 7 11 8 4 7 7 5 8 8 11 11 11 11 10 10 9 10 10 11 13
9 8 8 7 6 6 5 5 5 5 5 3 2 4 5 7 9 10 9 7 3 3 5 5 5 8 8 5 3 13 19 22 30 30 23 19 17 13 12 7 7 15 18 15 11 10 11 11 11 8 5 3 1 1 2 3 3 5 5 5 8 7 9 10 4 6 7 6 9 7 9 5 6 6 3 7 8 10 11 11 11 10 10 9 9 9 9 11
8 8 8 7 6 6 9 11 11 10 9 6 6 3 2 3 6 7 9 10 10 7 6 7 6 6 5 3 5 12 18 21 27 30 23 18 16 15 14 9 4 5 12 15 13 10 12 11 7 5 4 4 4 2 2 2 4 6 8 8 9 10 11 10 7 4 2 7 10 6 9 8 4 7 2 7 9 10 11 11 11 10 10 9 7 8 8 8
8 8 8 8 9 13 17 20 21 21 21 21 20 15 9 5 1 1 1 3 8 9 9 10 6 6 6 5 6 9 12 15 24 30 25 16 12 16 17 10 5 2 5 8 13 10 9 8 2 1 5 7 6 4 2 7 9 8 9 7 7 10 10 11 11 5 1 7 11 9 9 5 5 8 4 7 10 10 11 11 10 9 8 7 7 7 7 7
8 9 10 12 15 18 20 23 24 22 19 17 18 20 22 20 14 10 6 3 1 3 7 13 8 4 5 8 6 8 11 12 22 30 28 17 8 14 18 10 6 3 4 2 11 11 6 3 1 3 8 8 9 10 9 7 9 10 10 7 7 9 8 10 13 9 7 8 9 11 9 4 7 7 6 7 10 10 10 10 9 8 7 7 7 6 6 6
9 11 13 14 14 14 15 17 14 10 6 5 6 7 10 14 20 24 24 16 7 3 3 8 7 2 2 6 7 11 9 8 20 29 29 22 8 7 14 10 6 5 3 2 7 8 3 1 4 7 9 9 11 11 8 4 6 10 10 6 8 10 7 10 14 8 7 9 10 9 9 5 6 6 6 6 9 9 10 9 7 7 6 6 6 5 5 6
10 12 13 11 10 10 9 7 3 3 3 2 3 2 0 1 6 12 19 18 9 5 4 2 3 3 3 3 10 14 6 2 14 25 31 25 9 3 9 8 3 7 6 1 4 4 2 6 8 7 7 7 7 6 4 2 6 9 8 6 9 8 8 13 14 8 5 8 11 7 5 3 5 5 6 6 8 9 9 8 7 6 5 5 6 6 6 6
10 11 10 8 7 5 4 3 4 5 6 6 4 1 1 0 2 3 2 7 7 7 7 2 2 5 3 3 10 12 4 1 6 21 34 26 8 4 8 8 4 8 6 2 1 2 2 9 8 6 5 3 3 2 2 5 6 7 6 8 8 7 12 11 9 10 7 7 8 5 5 2 7 6 7 7 7 8 7 7 7 6 5 5 5 6 7 6
9 8 7 6 4 2 1 0 1 0 1 3 6 6 4 3 9 9 4 5 5 6 4 3 5 5 2 3 10 9 3 2 5 20 34 25 12 6 4 6 7 6 5 2 1 1 7 10 6 5 2 2 2 2 4 7 7 6 6 7 8 10 15 9 6 13 10 6 7 5 6 2 9 7 7 7 6 7 6 7 7 6 6 6 7 7 7 7
8 7 6 6 4 3 3 4 4 5 8 12 13 12 10 11 12 9 5 5 3 2 2 3 6 5 3 5 12 10 6 7 6 16 28 20 10 5 2 6 8 5 5 6 6 6 6 7 6 3 2 2 1 3 8 8 5 6 8 8 8 11 14 10 11 18 13 7 7 8 6 2 9 8 8 8 8 9 8 8 6 6 6 7 8 7 8 9
6 6 6 5 4 4 5 6 6 8 11 14 15 14 13 12 9 6 4 3 2 1 1 2 3 4 3 5 11 7 6 7 4 11 21 16 6 2 2 4 3 5 6 7 11 11 7 4 4 2 2 4 5 7 10 9 6 5 7 9 11 14 16 13 13 17 14 4 2 9 7 2 7 8 8 8 8 9 8 6 6 7 7 8 8 8 9 9
5 5 4 3 3 3 4 4 6 9 11 12 14 14 13 10 5 3 2 1 2 1 0 1 2 4 4 6 12 5 3 4 4 7 13 13 6 2 1 0 3 7 4 2 7 9 7 4 2 1 4 8 8 9 9 8 7 3 7 12 13 16 17 17 15 13 10 3 3 8 9 5 3 9 9 7 8 7 5 4 6 8 8 9 10 11 11 10
3 3 2 2 2 2 2 2 5 9 8 8 10 11 9 5 3 2 1 1 2 1 2 1 0 6 6 8 11 2 3 3 4 8 13 11 5 2 1 1 2 5 2 0 3 4 4 1 1 3 7 9 8 8 6 7 8 5 8 13 15 17 16 14 14 9 6 7 5 5 7 11 6 5 9 8 7 6 3 4 8 9 9 10 11 11 12 13
2 1 0 0 0 1 0 2 6 7 3 5 9 9 5 3 3 2 1 1 2 1 3 3 2 6 6 9 11 1 1 6 5 9 16 14 6 2 2 3 1 3 2 1 1 2 2 2 3 5 6 8 9 8 7 7 7 6 11 14 15 17 16 12 10 7 6 8 4 6 8 12 9 4 8 8 7 4 1 5 9 10 10 12 12 13 14 14
3 1 1 1 2 2 0 4 7 4 2 7 10 6 4 3 2 1 1 1 2 1 2 2 1 4 5 8 12 6 2 7 3 8 17 15 8 2 4 5 1 3 4 2 3 3 2 3 5 6 7 7 8 8 8 7 5 7 12 14 13 15 14 8 6 6 6 5 5 10 12 11 9 4 8 7 4 2 3 7 10 11 12 13 13 14 15 17
3 2 1 1 2 1 3 6 6 4 5 10 8 4 4 3 1 0 1 1 1 1 1 1 1 4 5 3 8 7 3 4 3 8 15 12 11 6 5 3 0 1 3 4 5 2 1 2 1 3 6 6 7 8 7 6 6 8 12 13 12 11 8 4 3 6 6 4 8 15 15 11 8 3 6 4 2 3 6 7 9 11 12 12 13 15 18 18
4 2 2 1 1 3 5 5 5 6 9 9 7 5 5 2 1 1 1 1 1 1 0 2 1 3 6 3 4 4 4 4 2 5 6 4 10 9 4 1 1 1 1 4 6 3 1 1 2 1 4 5 7 7 2 3 5 10 11 11 9 5 4 2 1 3 5 5 10 18 18 13 8 3 3 2 2 2 6 8 10 12 13 13 13 16 18 17
6 4 3 1 3 4 3 4 6 9 9 8 8 6 3 1 1 2 1 0 1 1 1 3 2 2 5 4 3 5 3 3 4 6 5 3 8 11 5 2 2 1 1 3 4 3 3 2 1 0 1 4 7 5 2 4 4 8 9 12 10 4 4 3 1 1 3 7 12 18 17 11 9 6 4 5 4 1 4 9 11 13 14 15 15 18 18 17
9 7 6 3 3 4 4 6 9 9 9 9 7 3 1 0 0 1 1 1 1 2 2 1 2 3 3 1 3 5 3 2 4 5 5 4 7 9 8 6 4 3 3 4 5 3 3 3 1 1 2 3 7 4 1 2 3 10 11 12 11 7 7 6 6 7 5 8 13 15 12 8 9 6 5 6 2 2 4 6 9 13 15 16 18 19 18 17
12 8 8 7 5 5 8 9 10 10 10 8 4 2 2 1 1 1 1 2 1 2 1 1 2 2 2 1 3 4 1 2 4 3 2 1 3 6 9 10 9 5 4 4 6 6 2 4 3 1 1 4 9 8 6 5 7 11 10 9 8 7 8 8 10 10 8 10 13 11 6 7 10 5 6 7 2 2 5 5 8 12 14 17 19 19 18 17
13 9 7 10 9 8 10 9 9 10 8 5 2 1 1 1 0 1 1 1 1 1 1 0 1 1 1 2 3 3 0 2 3 4 3 1 3 5 6 9 11 5 2 2 3 4 4 1 4 5 2 6 9 6 4 6 4 6 7 6 6 4 4 7 8 9 11 14 12 8 5 8 12 5 5 6 2 3 5 5 9 12 14 17 18 18 18 16
12 12 10 11 10 8 7 6 8 8 5 2 2 2 1 1 1 1 1 0 0 1 1 0 1 0 2 2 1 1 1 1 1 3 5 4 3 3 4 6 10 6 2 2 1 2 3 2 3 4 1 5 8 2 2 5 2 4 5 4 7 6 5 6 6 7 9 13 9 5 5 9 8 3 7 4 5 6 7 9 12 15 17 19 18 17 17 15
5 11 13 13 12 7 5 5 6 6 3 2 2 2 0 1 1 1 1 1 0 1 0 1 1 2 1 1 2 2 1 0 0 1 3 4 2 2 2 2 5 6 3 2 1 2 3 3 4 4 2 4 6 1 1 3 4 5 5 5 7 7 4 6 7 7 8 10 8 7 9 11 7 2 4 3 7 9 12 13 15 18 21 21 18 16 16 16
3 5 10 14 14 8 5 4 6 5 3 2 3 2 0 0 0 1 1 1 1 0 0 1 1 3 1 1 2 4 3 1 1 2 1 1 1 3 1 0 1 3 3 2 0 1 3 6 3 2 2 3 2 2 6 4 4 5 5 7 7 5 4 3 6 7 10 9 7 9 13 12 11 6 3 6 12 15 15 15 18 22 22 21 18 17 18 17
4 3 7 14 14 7 6 5 6 4 3 3 3 2 0 0 0 1 1 1 0 1 0 1 1 1 1 1 1 4 5 3 3 3 1 1 1 2 0 1 1 1 3 3 1 1 2 5 1 2 0 2 2 2 3 5 4 4 4 5 5 2 3 5 4 7 12 12 9 11 13 11 9 9 9 12 15 17 18 20 23 24 22 20 18 18 19 16
4 3 3 12 13 6 4 5 6 3 3 2 2 2 1 1 1 1 1 1 1 1 1 1 1 1 1 0 1 2 3 3 3 2 1 3 2 2 0 1 0 1 2 2 1 1 1 3 1 3 3 3 1 2 2 2 4 4 3 2 2 1 4 2 1 4 8 10 11 14 14 8 7 7 9 13 15 17 21 22 22 23 22 19 17 17 16 14
2 1 1 11 11 5 5 6 5 4 3 2 1 2 1 1 2 1 2 2 0 0 1 2 1 1 1 0 1 1 2 2 2 2 2 2 1 2 2 1 1 2 2 1 0 0 1 2 3 2 3 3 0 1 1 1 2 1 2 3 3 1 2 2 0 1 1 7 10 13 12 8 7 6 6 11 15 17 21 21 20 20 21 19 17 16 14 13
2 1 1 11 8 3 5 7 6 4 2 2 2 2 1 2 3 2 1 1 1 1 1 2 2 1 2 0 1 1 1 1 1 1 1 1 1 1 2 2 1 1 0 1 1 1 1 2 4 6 5 4 2 3 2 4 4 4 4 3 3 5 3 5 5 1 1 5 6 7 11 10 7 5 5 10 13 15 20 21 20 20 21 20 17 15 13 13
2 1 2 12 5 5 4 5 3 2 2 2 2 2 2 2 3 2 1 1 1 1 1 2 2 2 1 0 1 2 1 1 0 0 0 0 1 1 2 2 1 1 1 1 1 1 1 2 4 6 6 3 4 4 4 7 8 6 5 3 1 3 4 5 7 6 5 6 6 6 10 8 4 6 7 10 13 16 19 20 20 20 20 19 17 15 13 13
1 3 4 12 2 7 6 4 1 3 3 1 0 2 2 2 2 1 1 0 1 0 1 1 1 1 1 0 1 2 2 1 0 0 1 1 0 2 2 2 2 2 2 1 1 2 1 1 3 6 5 2 5 4 3 6 6 4 6 4 2 3 2 1 4 6 5 6 7 8 9 6 5 10 12 12 15 18 18 19 20 19 17 17 17 15 13 14
1 3 3 11 2 6 1 2 3 2 2 2 2 3 1 2 2 1 1 1 1 0 1 2 0 1 1 0 1 1 1 1 1 0 0 1 1 2 2 2 2 1 0 1 1 0 1 1 3 6 5 1 1 0 1 3 3 2 4 4 4 4 1 2 3 1 3 7 10 10 9 8 9 13 16 17 19 20 19 19 19 17 16 16 15 13 13 16
2 1 1 9 9 5 1 1 3 4 4 3 4 3 1 3 2 1 1 2 1 0 1 2 1 1 2 1 1 2 0 1 0 0 1 1 1 1 1 2 2 2 0 2 2 2 2 2 3 4 6 6 5 5 5 6 6 3 3 4 3 3 2 1 3 3 5 11 13 9 10 13 16 18 20 20 20 21 21 21 19 17 16 16 14 13 14 16
1 1 1 4 8 6 2 1 2 4 5 4 4 1 1 3 2 1 1 2 1 0 1 2 1 1 2 1 1 2 0 1 2 1 1 1 1 0 1 1 1 1 2 1 2 1 1 1 2 2 2 5 8 10 12 11 10 8 4 1 3 4 3 1 3 6 10 13 10 8 11 19 22 22 22 21 20 20 21 22 21 18 17 16 14 13 14 17
0 1 1 0 2 3 3 2 2 3 3 2 2 2 2 3 2 1 1 1 1 0 1 2 1 1 1 2 2 2 1 1 1 1 1 1 1 0 1 2 1 1 2 1 2 1 1 2 2 3 7 10 12 15 16 13 11 12 9 2 4 5 4 2 3 7 10 11 8 9 15 20 21 22 22 20 20 19 19 20 20 18 17 15 14 14 17 19
1 2 0 1 0 1 2 2 2 4 4 2 1 2 3 3 3 2 1 1 1 1 1 1 1 0 1 1 2 1 1 0 1 1 1 0 1 0 1 2 1 1 1 1 2 1 1 2 1 2 7 12 13 16 16 13 10 9 7 6 6 5 5 5 7 10 9 7 11 17 21 20 20 20 19 18 18 17 18 18 17 17 16 14 14 16 18 20
2 3 1 2 1 1 1 1 3 5 5 3 2 1 2 5 4 1 1 1 1 0 1 2 2 2 1 1 1 1 1 1 1 2 2 2 2 1 1 2 1 0 1 1 1 1 2 2 1 1 8 12 14 14 12 10 8 7 7 8 8 7 7 8 10 11 10 12 16 20 21 18 15 14 16 18 16 14 15 16 16 17 15 13 14 17 18 19
1 2 2 2 3 2 2 1 1 3 3 2 1 2 2 4 4 2 1 1 2 2 2 2 3 3 2 2 2 1 2 2 1 2 4 4 2 2 2 1 2 2 0 1 1 0 2 1 2 1 6 10 9 8 7 8 8 8 8 7 8 8 9 9 10 10 10 12 15 17 18 14 9 11 15 17 15 14 15 17 17 16 14 14 15 17 19 19
3 4 5 4 3 1 2 1 1 2 2 0 1 3 3 3 5 5 3 1 1 2 2 3 5 4 1 2 3 2 1 2 1 1 4 3 1 1 1 1 2 3 1 1 1 1 1 1 1 1 5 6 3 4 6 5 4 6 7 8 9 8 7 7 8 9 9 12 15 14 12 10 10 13 16 16 16 17 18 18 17 14 13 14 15 18 20 18
5 4 3 4 3 1 1 1 0 1 2 1 1 3 2 2 4 4 3 1 1 0 1 2 5 4 1 3 3 1 1 1 0 1 1 1 1 1 1 1 2 2 1 2 0 0 1 1 1 1 4 5 1 6 10 3 2 2 3 7 10 9 7 9 9 10 10 9 10 8 8 11 14 15 16 17 18 18 17 16 15 13 12 13 15 17 18 17
Wind_Direction
81 72 70 67 67 82 97 96 90 88 86 79 71 68 64 64 72 88 108 131 155 164 180 218 221 234 294 322 352 29 37 48 50 42 43 12 351 353 354 2 5 11 23 27 37 43 42 55 36 49 138 99 4 357 22 31 8 266 255 288 285 299 320 344 327 333 327 317 343 24 358 302 297 92 143 139 79 92 80 68 72 70 71 83 99 111 116 116
83 72 65 69 76 89 98 95 89 88 86 79 74 72 65 61 64 77 98 116 145 180 252 271 263 261 265 269 289 288 17 38 42 36 21 358 356 0 3 9 8 11 19 25 30 25 31 40 20 16 162 110 13 14 228 10 339 290 280 283 290 344 357 20 350 338 331 317 329 348 19 310 314 57 165 218 121 124 93 81 94 90 92 99 103 104 104 103
75 73 71 78 89 96 101 96 88 87 84 78 77 72 63 56 57 70 92 100 101 88 68 54 39 328 274 252 255 269 305 31 38 19 356 354 359 2 5 11 8 10 15 22 27 29 49 49 38 9 118 79 33 20 30 7 337 1 302 285 349 8 358 35 3 344 340 321 322 336 354 303 334 42 188 254 182 175 153 126 128 122 123 117 107 101 100 98
73 77 81 86 96 103 105 93 83 83 78 78 77 67 59 49 49 68 98 104 101 89 74 64 58 51 41 274 229 198 206 45 36 351 343 352 356 1 5 7 8 11 13 19 26 34 61 52 51 40 84 98 56 22 40 18 346 105 302 324 25 352 340 30 8 350 343 318 315 322 315 314 20 45 283 302 262 200 132 114 133 143 135 120 109 103 100 95
77 78 85 92 100 106 99 86 78 77 76 78 75 66 60 46 45 70 110 117 109 89 63 48 46 41 41 46 162 199 216 66 9 341 341 347 352 4 1 4 9 10 13 26 29 33 48 31 56 64 48 66 40 31 54 31 338 156 61 24 27 342 359 20 6 355 333 305 303 316 328 336 32 57 2 332 297 347 22 8 79 127 123 112 108 104 98 89
72 73 85 95 100 100 92 82 73 72 80 81 76 69 59 53 61 77 103 120 108 28 347 349 349 3 34 49 67 85 115 95 348 334 338 343 355 6 359 4 11 11 21 37 35 34 36 9 39 64 46 70 31 29 39 24 322 290 76 56 38 10 14 7 359 357 326 320 338 338 347 337 303 26 41 29 358 356 6 53 99 106 105 105 103 97 91 83
70 73 86 93 95 95 89 81 71 75 87 84 79 73 68 74 80 79 81 82 60 27 336 296 308 332 6 56 61 65 75 54 343 333 338 348 0 2 2 6 13 18 27 35 26 26 34 20 48 50 38 87 32 28 32 25 15 8 57 46 40 44 20 358 347 359 352 356 353 319 301 327 331 341 61 42 29 32 63 91 96 98 99 98 94 88 85 80
78 81 88 92 94 95 91 81 73 79 90 89 82 76 81 85 82 74 67 63 52 44 36 8 301 330 172 163 55 61 56 4 341 341 347 358 9 2 7 12 17 27 34 37 21 8 27 26 49 296 21 68 348 8 13 7 83 42 36 27 34 91 24 359 357 19 20 3 337 287 312 8 20 51 65 43 48 71 83 93 94 97 95 90 87 85 83 79
84 89 94 96 99 98 92 83 74 82 91 91 77 75 90 88 74 58 49 47 42 46 47 49 58 89 124 157 136 60 29 348 345 355 0 10 16 9 19 23 25 34 40 42 32 26 28 28 37 326 76 75 5 12 339 330 54 30 11 16 30 68 9 3 31 22 10 7 352 318 337 49 101 72 65 54 69 86 92 96 96 96 90 86 85 81 81 78
89 99 101 100 102 98 93 82 75 84 90 80 70 80 92 84 64 44 42 47 45 50 52 57 66 74 90 120 80 67 8 349 4 12 13 19 20 21 32 33 34 39 46 46 40 37 30 32 17 346 89 75 15 12 342 346 30 4 353 55 31 22 2 7 23 21 359 18 15 336 337 49 124 44 67 77 87 99 100 98 95 93 88 85 84 79 78 74
96 105 101 103 103 99 96 84 83 83 78 70 73 86 85 75 54 40 44 50 53 54 51 59 67 66 69 70 65 62 359 0 16 20 22 23 25 35 40 38 38 43 57 53 46 50 54 62 102 144 55 16 347 32 56 23 351 335 344 171 12 354 150 11 7 11 349 356 28 334 309 79 82 32 91 113 109 112 106 101 96 92 89 85 83 78 74 70
103 104 97 101 100 100 97 84 84 74 73 73 73 73 55 49 24 28 43 45 57 52 47 51 52 53 56 59 61 44 4 9 16 25 33 32 35 46 54 51 46 49 65 67 57 60 65 67 70 68 11 292 265 67 94 31 229 64 6 93 4 347 100 15 3 358 342 344 5 323 277 96 62 52 122 132 121 118 111 104 98 93 91 85 82 77 71 67
100 95 92 98 98 99 90 79 77 70 79 80 71 56 49 61 46 29 36 51 62 49 56 63 60 66 55 63 62 29 19 13 17 31 37 39 46 58 65 60 53 52 66 81 75 68 68 62 69 78 14 323 42 41 136 171 113 8 353 38 358 339 36 11 1 345 342 356 357 332 303 25 66 82 131 135 130 129 115 107 102 95 92 85 81 76 69 64
92 89 91 94 94 89 75 68 71 80 93 88 73 59 69 84 68 63 81 85 75 53 63 70 65 69 63 95 105 25 17 15 22 26 23 32 43 49 53 55 56 54 62 81 79 77 77 67 75 91 48 17 40 226 167 126 51 355 312 314 3 353 355 360 4 348 350 9 346 334 317 351 82 85 131 143 143 137 119 111 106 97 93 87 81 76 70 65
87 90 94 94 93 78 66 72 79 97 105 97 83 69 83 90 72 69 73 71 74 65 61 54 72 84 73 101 86 13 12 18 20 16 14 22 31 25 12 17 66 60 60 67 71 79 79 68 66 58 6 327 259 157 138 122 75 19 346 345 357 354 342 352 31 11 357 336 329 333 321 330 85 67 117 158 153 138 121 113 107 100 97 89 82 77 72 67
89 97 100 98 93 82 88 94 93 93 87 81 81 80 144 114 85 76 69 64 64 71 68 46 55 92 92 64 6 4 13 16 11 11 15 19 25 17 6 24 73 79 70 60 58 70 64 61 71 53 3 349 358 335 185 83 35 32 22 354 341 348 341 343 4 22 12 329 332 337 321 317 58 43 47 164 156 137 122 116 110 104 98 89 80 73 67 62
100 106 106 104 103 104 106 104 99 94 87 83 79 77 81 87 156 252 14 84 63 59 59 38 37 97 79 19 2 1 359 2 4 8 14 16 24 22 18 32 33 76 129 50 38 39 34 41 99 138 35 27 8 339 36 24 358 358 8 351 337 338 327 330 340 350 29 331 325 320 313 330 48 36 49 151 153 137 127 122 116 110 98 87 78 66 57 46
107 109 111 112 111 111 112 111 108 103 92 82 77 76 76 71 73 71 66 106 38 8 43 21 15 116 64 16 359 329 325 347 4 7 11 12 19 26 27 29 11 35 165 26 24 16 5 26 75 57 36 28 24 29 47 22 339 334 339 340 336 324 319 329 326 333 2 334 314 320 319 358 51 50 68 131 148 137 130 126 118 112 96 84 69 53 46 30
107 113 119 120 117 117 122 125 121 112 90 66 61 64 70 66 67 63 54 59 59 29 47 3 2 113 50 1 328 321 317 344 9 8 6 4 355 14 25 26 22 43 66 40 23 5 340 44 36 33 27 25 31 41 52 15 312 314 317 318 320 318 328 330 318 330 15 334 320 334 325 343 46 60 76 122 146 136 130 124 117 109 91 73 52 37 24 6
111 120 127 127 124 127 136 148 187 255 267 292 321 341 127 78 54 48 38 48 63 46 67 17 10 78 68 347 332 345 348 355 19 9 2 0 346 336 12 3 23 55 42 20 20 351 341 53 44 22 16 28 37 43 35 316 281 300 313 317 317 320 331 327 321 334 32 337 326 339 324 356 67 64 89 124 141 137 133 121 111 101 76 47 31 12 350 341
115 124 133 138 139 147 176 223 271 264 262 265 263 355 129 265 70 117 19 51 59 40 61 69 48 67 56 344 344 353 350 204 30 9 5 7 355 338 2 351 23 50 25 291 277 291 41 55 44 9 5 17 30 29 325 307 307 321 333 329 329 339 333 320 309 326 354 336 323 333 319 53 94 81 103 128 139 135 133 122 108 84 55 25 5 348 330 317
116 126 135 142 149 165 205 242 349 290 93 114 119 100 98 109 114 132 147 100 60 26 55 76 73 67 40 22 4 350 331 357 10 9 6 6 14 22 359 13 51 51 355 302 243 21 61 54 27 6 0 235 228 269 326 332 333 347 354 342 348 349 336 324 308 327 338 318 318 331 312 57 101 101 106 115 119 113 114 112 92 48 24 360 342 326 311 309
115 122 123 119 115 99 83 77 77 93 101 107 107 103 107 111 123 133 114 104 91 3 9 52 67 43 16 44 11 358 34 26 352 4 2 359 21 38 354 32 59 62 9 19 49 57 57 39 15 3 253 261 268 338 351 344 342 14 12 354 350 348 337 328 324 326 322 294 304 311 291 118 111 113 102 99 99 99 102 95 61 15 355 334 320 304 297 305
110 112 110 104 103 89 77 80 89 98 107 112 107 112 126 125 129 131 97 89 101 99 33 61 92 49 39 25 360 6 65 47 352 355 359 0 7 329 12 32 33 54 37 33 65 77 67 28 1 264 266 359 10 12 11 356 355 38 32 5 343 337 329 314 315 320 313 279 286 313 310 107 136 142 116 110 109 103 102 78 29 355 337 321 310 307 306 301
104 105 99 97 102 86 81 82 92 107 112 113 114 123 133 135 146 142 117 88 67 110 137 142 129 45 31 353 357 6 130 76 44 3 358 3 351 291 59 14 346 36 32 9 71 79 60 18 309 310 13 16 12 16 18 351 343 37 38 6 334 323 318 312 319 322 320 356 34 340 338 357 141 150 135 131 125 108 96 39 2 343 334 329 324 325 326 317
94 96 93 99 89 75 93 93 109 124 117 112 127 138 138 134 142 129 136 93 58 16 357 56 71 18 6 347 349 313 160 43 22 15 9 6 351 244 71 10 7 32 14 51 81 82 58 6 301 29 18 16 15 20 27 353 341 6 10 348 322 313 314 318 325 321 332 344 353 15 355 332 333 128 133 136 131 117 96 12 353 343 335 333 332 334 334 330
72 77 53 228 175 23 2 154 150 143 124 145 150 146 144 145 128 113 248 33 51 342 1 6 337 10 9 353 346 268 112 341 329 19 11 7 354 253 43 24 24 36 21 193 78 60 28 5 39 29 13 22 16 5 13 359 342 354 349 334 318 315 318 324 320 309 333 330 330 38 5 326 332 73 130 138 130 125 75 351 347 344 340 337 337 338 336 333
43 25 319 276 253 263 286 156 162 161 142 161 162 158 164 167 154 174 266 83 39 352 40 16 3 28 17 3 12 59 77 324 339 5 351 4 12 325 63 45 40 27 357 323 40 51 2 15 40 21 18 29 5 344 346 346 348 346 332 320 309 309 313 312 299 302 324 322 333 360 351 327 333 62 138 156 134 97 345 342 342 340 340 340 339 339 336 331
34 9 338 293 249 205 159 157 161 163 156 161 162 158 158 151 170 228 85 140 356 38 96 346 39 19 347 353 30 51 25 349 38 339 336 8 21 22 75 51 65 47 355 29 51 64 14 20 10 5 29 19 337 326 333 359 6 327 306 304 297 295 305 305 311 324 323 327 347 351 350 334 329 64 139 180 133 30 347 341 340 340 341 341 340 338 333 328
38 29 16 303 182 145 145 146 146 146 145 154 155 143 143 125 123 117 85 211 353 49 178 359 3 323 339 15 53 35 26 25 0 324 337 14 13 29 93 232 335 84 63 64 60 71 101 322 257 340 39 0 309 300 335 41 337 300 299 321 315 290 317 308 259 326 322 335 354 352 347 333 323 19 84 98 111 48 352 343 338 341 342 339 338 334 329 327
46 51 49 101 168 159 148 125 136 146 142 145 143 130 127 59 66 122 104 261 12 0 29 27 0 332 14 41 40 13 32 36 349 351 11 13 8 23 43 346 349 44 68 68 52 73 141 182 254 166 38 330 289 268 178 175 280 315 339 350 347 344 338 314 258 345 326 337 352 351 342 331 330 353 81 106 121 150 337 336 334 339 340 336 332 330 330 330
44 46 46 70 143 160 150 139 140 142 138 139 137 113 84 307 276 140 346 311 333 9 45 31 348 20 26 66 33 1 352 23 19 22 21 24 28 30 37 25 348 326 29 30 0 8 147 145 47 192 184 335 327 337 22 193 349 3 5 1 357 352 345 344 345 341 328 332 343 341 329 322 344 9 128 142 154 265 297 314 332 338 335 332 331 330 331 331
44 40 42 61 96 120 121 134 140 137 135 135 124 57 79 136 222 143 339 324 358 16 32 303 336 354 310 294 28 357 334 20 9 26 30 18 50 57 59 38 10 351 3 6 347 346 84 124 72 82 180 5 6 12 3 347 6 14 10 4 360 351 343 342 339 334 325 322 336 349 336 314 338 2 152 166 174 305 290 298 329 332 329 330 331 330 330 331
51 49 58 69 82 101 112 126 133 132 136 132 95 60 92 201 220 133 276 312 4 352 24 336 316 331 11 46 11 329 33 80 6 15 16 8 38 44 48 31 20 8 305 352 11 356 357 32 43 29 355 8 23 37 359 324 341 23 13 353 355 4 340 324 326 327 318 313 331 14 22 333 336 354 149 162 195 270 280 305 326 325 329 332 330 332 333 336
58 55 63 66 66 81 101 124 135 135 135 109 67 78 141 229 201 163 205 198 235 307 44 98 292 307 79 55 29 334 9 52 57 43 29 38 50 28 15 8 9 358 308 358 22 340 317 267 58 48 301 6 20 53 277 298 296 8 354 349 354 343 309 292 269 257 291 309 327 4 357 339 344 91 129 170 240 272 303 326 331 330 334 335 332 335 337 339
71 49 50 48 42 51 80 117 139 138 133 97 69 71 117 222 213 168 150 58 56 338 118 183 338 30 61 4 37 62 26 329 43 66 56 63 72 50 23 342 1 358 352 17 11 348 318 295 40 58 137 46 23 41 70 346 336 347 346 353 338 306 294 320 287 262 300 321 331 334 328 332 341 80 136 226 283 321 331 332 335 335 336 336 335 337 339 339
163 57 46 32 26 40 73 116 144 134 103 75 77 89 159 189 266 226 140 74 68 12 242 186 9 19 21 319 358 354 336 322 340 348 74 95 80 71 52 320 19 355 352 357 149 57 314 296 340 62 137 78 49 96 90 64 342 345 359 342 313 232 172 10 323 318 333 329 327 331 326 329 339 344 339 321 329 337 338 337 337 336 338 338 337 340 340 338
171 112 53 21 17 44 76 104 131 118 81 66 86 121 179 125 235 282 94 74 96 248 6 92 32 8 323 305 3 335 323 335 359 7 71 41 58 112 1 15 103 356 343 319 279 109 271 286 306 138 312 26 148 174 97 86 36 41 46 355 340 316 342 351 337 339 340 327 318 330 328 327 336 333 332 340 341 339 340 340 337 337 340 339 339 341 340 339
155 139 55 9 12 46 78 108 118 86 73 84 107 144 154 109 101 333 357 16 252 243 48 76 23 33 129 307 349 322 327 352 355 355 56 12 28 140 162 355 44 35 2 309 308 95 225 286 346 158 237 296 185 237 312 44 76 109 115 37 40 351 315 316 330 341 336 320 314 325 325 321 334 338 340 344 344 343 342 338 336 338 339 339 340 340 338 341
126 141 44 360 10 62 82 94 91 47 61 93 119 132 106 129 129 22 353 343 307 311 55 134 139 82 134 219 287 309 354 17 349 354 45 4 1 128 118 174 262 23 21 314 307 310 227 254 292 262 237 263 290 49 334 51 50 24 29 18 20 7 220 218 289 99 325 313 315 320 313 306 329 348 357 350 348 346 341 336 334 336 337 339 340 339 338 341
91 152 23 357 3 118 84 65 57 36 83 88 95 118 102 144 136 89 24 312 317 352 22 119 105 92 137 148 179 196 333 32 17 8 52 26 22 71 98 165 212 35 117 223 192 239 264 227 277 306 309 308 26 76 122 122 93 27 19 25 16 12 354 333 340 66 179 296 286 288 292 297 325 359 13 359 353 344 338 336 334 335 337 339 340 339 339 339
63 155 357 352 356 147 79 56 47 23 101 84 66 105 87 117 126 109 151 235 318 31 48 87 77 85 139 117 146 178 200 117 71 18 132 37 26 30 59 129 177 229 226 253 121 132 298 255 260 283 287 312 58 82 100 117 119 93 71 88 67 30 29 353 329 323 311 285 261 271 283 287 341 6 0 2 353 339 337 338 334 335 338 338 339 339 339 339
52 159 13 1 51 145 74 68 111 22 75 122 26 67 53 96 125 144 166 43 12 84 61 86 75 47 129 171 167 181 195 183 236 14 170 223 131 75 71 127 178 221 216 217 112 140 213 229 269 277 261 161 111 110 126 147 152 103 75 71 74 72 56 293 293 317 311 283 292 304 290 284 344 350 344 349 346 336 336 338 337 336 337 338 339 338 339 339
53 169 15 10 68 172 76 86 152 84 104 157 115 84 54 66 77 82 118 52 25 148 99 103 120 58 95 120 154 162 179 196 209 3 159 205 139 77 86 163 213 268 167 24 32 148 226 288 311 319 329 32 114 101 196 214 267 358 79 83 93 106 85 245 231 252 279 296 318 316 294 297 322 334 338 341 339 334 334 338 340 339 336 336 337 338 339 338
91 142 344 19 44 91 85 114 141 130 147 140 103 96 86 83 53 358 83 77 25 346 92 100 87 85 109 117 131 128 61 324 248 86 82 186 191 56 78 184 239 282 75 21 348 266 277 326 339 355 358 341 322 313 307 307 314 327 127 125 123 125 108 243 259 282 306 316 318 296 284 304 315 326 337 340 337 334 333 336 340 340 337 335 335 337 338 337
126 83 257 7 36 58 66 357 85 119 148 137 106 107 98 100 98 341 49 84 87 37 64 87 122 139 134 167 177 159 164 16 48 112 167 204 207 96 21 287 271 247 169 92 18 328 238 288 265 243 259 281 285 283 293 306 305 295 291 158 150 151 144 201 294 312 316 316 302 264 286 307 314 326 336 337 336 333 332 337 339 337 336 335 333 334 335 337
127 104 87 352 35 57 67 42 43 96 135 149 122 140 133 112 125 131 44 36 144 144 51 82 141 189 162 180 183 173 185 48 52 112 161 259 259 101 326 286 283 254 202 188 13 31 207 259 239 222 237 252 269 279 286 294 288 285 291 268 178 170 160 173 267 286 305 316 306 295 309 311 311 323 332 332 333 333 331 335 336 333 332 331 330 330 332 336
28 133 141 338 37 88 75 75 81 87 90 84 89 125 132 129 137 140 106 84 123 226 204 134 162 191 137 197 189 158 151 169 192 188 155 255 271 179 166 216 243 319 226 230 7 44 256 274 188 206 257 261 266 271 276 279 275 271 267 243 215 199 186 200 244 267 286 294 288 298 310 309 306 316 326 328 331 331 327 328 331 331 328 327 328 330 333 337
56 105 71 348 64 113 32 49 109 100 84 75 100 143 157 148 144 132 110 127 134 187 246 193 173 153 160 207 185 160 194 198 213 224 180 176 219 205 170 182 188 236 214 190 59 66 235 246 125 243 280 276 268 264 263 263 260 255 249 235 215 210 224 241 257 269 264 254 267 290 300 297 298 311 320 324 328 327 323 325 329 331 331 329 328 330 334 336
183 153 146 64 85 86 11 13 109 100 74 50 109 142 156 154 151 150 191 204 147 153 213 197 154 142 160 176 184 213 220 211 242 235 179 169 203 211 204 201 157 139 179 176 115 6 266 323 83 113 287 285 268 250 241 240 251 263 257 227 207 219 243 255 260 266 265 264 278 295 297 292 304 322 320 320 326 327 327 330 331 332 333 330 329 333 335 334
102 129 144 118 91 6 340 31 29 94 114 127 143 151 176 176 160 146 131 328 266 168 192 162 144 136 120 173 210 240 221 197 242 228 179 180 219 179 183 223 168 155 145 154 172 247 248 299 75 70 303 287 223 229 268 255 242 265 257 225 210 217 244 262 265 269 278 286 294 299 300 304 322 327 320 321 327 329 331 331 330 330 330 330 332 333 333 332
102 99 123 103 88 326 324 83 12 108 132 87 104 144 176 168 157 143 119 136 243 18 1 157 152 150 165 200 216 233 92 140 97 31 176 180 62 83 104 121 144 160 167 152 179 318 164 266 310 41 295 284 305 316 304 288 160 251 243 209 203 209 253 278 277 273 270 276 289 293 292 304 317 322 321 323 327 329 329 327 326 325 323 327 332 332 331 330
Height
833 832 832 831 831 832 832 831 831 831 831 831 832 831 831 831 830 830 829 829 830 830 830 830 830 829 830 829 829 829 828 826 825 825 827 834 836 833 831 828 826 823 822 821 820 820 819 819 819 819 818 819 822 823 825 826 827 825 826 831 830 828 830 828 828 830 830 827 825 829 833 831 828 834 839 839 840 844 847 850 851 851 853 853 853 855 857 860
834 833 832 831 832 832 832 831 831 831 832 832 832 832 832 831 830 830 830 830 830 830 830 829 829 829 829 828 829 828 828 827 825 827 832 836 834 832 831 828 826 824 823 821 820 820 819 819 819 819 818 820 824 824 825 827 828 827 830 832 830 829 831 833 834 833 833 832 829 830 836 836 831 833 838 835 838 843 844 850 853 852 856 856 857 859 860 862
834 834 833 832 833 833 832 832 832 832 833 833 833 833 832 831 831 830 830 830 831 831 830 829 828 828 828 828 828 828 829 827 826 831 835 835 833 832 831 829 827 825 823 822 821 820 820 820 820 819 819 821 826 825 825 828 829 830 832 830 830 834 835 837 840 838 839 839 834 833 838 837 834 836 837 834 836 839 840 846 850 851 855 857 859 861 862 864
834 835 834 834 834 833 833 832 832 833 833 833 833 833 833 832 831 831 831 831 831 831 830 829 828 828 828 827 827 828 827 826 833 839 837 835 834 833 831 830 828 826 825 823 822 821 821 821 820 821 820 823 828 827 828 832 833 833 834 833 836 840 838 839 844 843 844 843 839 837 837 836 837 839 838 836 834 834 838 844 847 850 854 858 861 863 864 865
835 835 835 835 835 833 833 832 833 834 834 834 834 833 833 832 832 831 831 831 831 831 830 829 829 829 828 826 826 827 826 832 841 841 838 836 835 833 832 831 829 828 826 824 824 822 822 821 821 821 821 825 828 828 831 837 836 834 837 839 842 842 840 842 845 847 848 844 841 838 836 837 839 841 841 840 836 837 846 850 850 852 857 860 863 865 866 867
834 834 835 835 834 832 832 833 834 834 835 835 834 835 834 833 833 831 832 832 832 831 830 830 829 829 830 828 827 826 829 841 846 841 839 837 835 834 833 832 831 830 828 826 825 823 823 822 821 824 825 828 832 831 834 839 837 834 837 842 844 845 844 845 846 849 850 844 840 839 839 840 839 841 846 848 850 852 855 855 855 858 862 864 865 867 868 869
834 835 835 834 833 833 834 835 835 835 835 835 835 835 835 835 833 833 833 833 833 832 831 830 829 830 831 830 829 828 833 845 848 843 840 837 835 835 833 833 832 831 829 826 826 825 826 824 824 829 828 830 836 836 838 840 837 834 837 842 846 848 846 847 848 849 849 845 844 843 841 841 839 841 849 857 863 862 859 860 861 863 865 867 868 869 871 872
835 835 834 834 834 834 835 836 836 836 836 836 836 836 836 836 834 835 834 834 834 833 831 830 829 830 830 831 830 830 839 847 847 843 840 837 837 835 834 834 832 831 830 828 829 827 828 829 830 832 830 834 838 837 840 838 836 837 840 844 845 847 846 846 847 846 847 846 846 844 839 841 845 845 854 865 867 865 864 865 865 867 868 869 871 872 873 875
836 835 835 834 835 836 836 837 837 836 836 837 837 837 837 836 836 836 835 836 835 834 833 830 830 830 830 831 828 833 847 851 848 844 840 838 837 836 835 834 833 832 831 831 831 829 829 832 833 833 832 838 839 840 841 836 838 844 845 846 845 845 846 844 844 845 846 846 845 842 836 843 851 849 860 871 869 868 868 867 869 870 871 872 874 875 876 877
836 836 835 836 836 837 837 837 837 837 837 837 837 837 837 837 837 837 837 836 836 836 835 833 833 831 831 830 828 840 854 852 848 844 840 839 838 836 835 834 834 833 833 833 832 832 832 833 834 833 833 838 840 842 843 840 843 848 849 849 846 846 848 844 842 845 846 845 845 841 837 844 850 848 861 873 871 871 870 870 872 872 874 876 877 878 879 879
836 836 836 837 837 837 837 837 837 837 837 837 837 838 838 838 837 838 837 837 837 837 836 836 835 833 833 830 833 848 855 850 848 844 841 840 838 837 836 835 835 834 834 835 835 836 835 835 835 833 834 838 841 843 845 847 849 850 849 849 846 843 846 843 841 844 844 843 845 844 840 844 849 852 864 873 872 872 872 873 875 875 878 879 880 881 882 882
837 837 837 837 837 838 837 837 837 837 838 838 838 838 838 838 838 838 838 838 838 838 838 837 835 835 833 831 842 853 853 850 848 844 842 840 838 838 837 837 836 835 836 836 838 838 837 837 834 834 839 840 840 842 846 850 851 849 846 845 843 839 841 843 843 845 844 842 844 843 837 841 856 864 868 872 872 874 874 875 878 879 881 882 883 884 884 886
838 838 838 838 838 837 837 838 838 838 838 838 839 839 839 839 839 839 838 839 838 839 839 837 837 836 832 838 851 854 851 851 847 844 843 840 840 840 839 839 838 837 837 837 839 839 838 838 835 838 843 840 839 843 847 850 849 848 847 847 846 842 841 842 846 848 845 844 844 844 836 839 862 871 869 872 873 875 876 878 881 881 884 885 886 886 887 889
838 838 838 838 838 838 838 838 838 838 839 839 840 840 840 840 839 839 839 839 839 839 839 838 838 836 836 846 854 852 851 851 846 843 842 841 841 840 841 841 840 840 839 839 840 840 840 839 836 838 842 842 845 847 845 845 846 848 849 848 848 848 845 844 849 850 847 846 845 847 839 839 863 872 869 875 874 875 878 880 883 884 886 887 888 889 889 891
839 839 839 838 838 838 838 838 839 839 839 840 840 840 841 840 840 840 839 840 839 839 839 838 838 838 841 849 852 852 851 848 846 846 845 844 842 841 842 841 841 842 840 841 841 841 841 839 838 843 846 844 844 845 842 843 848 849 850 850 850 851 849 844 850 852 851 850 845 848 843 839 860 872 871 875 875 877 880 882 885 887 888 889 889 890 890 892
840 839 839 839 839 839 839 840 840 840 840 841 841 841 841 841 841 840 840 841 839 839 839 839 839 838 844 852 852 851 850 848 849 849 847 845 844 844 843 841 842 842 841 842 842 842 841 840 846 852 851 845 845 844 839 842 847 849 854 860 858 857 855 847 847 852 856 854 846 849 848 842 857 872 872 874 876 879 881 885 888 888 889 890 890 891 891 892
840 840 840 840 840 840 841 841 841 841 841 841 841 842 841 841 841 840 841 841 841 841 839 841 841 838 846 854 854 853 854 854 853 851 849 847 847 846 843 842 842 842 842 841 841 842 841 844 852 854 852 851 851 844 840 852 858 854 859 864 864 863 862 855 849 850 854 855 851 850 848 848 862 874 874 875 877 880 883 886 888 889 890 890 891 892 892 893
840 840 841 841 841 842 842 842 842 842 842 842 843 843 842 842 841 840 841 841 840 839 839 842 840 842 853 857 859 860 858 857 855 852 849 848 848 847 845 844 843 842 841 841 844 845 845 848 851 852 855 858 857 851 858 875 876 869 869 869 868 865 863 862 856 850 853 857 854 850 847 853 868 876 877 878 879 881 884 886 888 890 891 891 892 892 893 893
841 841 841 842 843 843 843 843 843 843 843 842 843 843 843 843 842 842 843 842 844 847 851 854 851 855 863 863 863 862 859 859 856 853 852 850 848 848 847 846 845 843 843 845 850 854 853 851 853 858 865 871 872 872 877 884 881 877 875 875 874 868 863 864 857 852 859 860 852 851 852 858 870 878 881 882 881 883 885 887 890 891 891 892 893 893 893 892
842 842 842 843 843 844 844 844 844 843 843 843 843 843 843 844 846 851 853 850 855 861 863 865 863 864 866 866 864 861 859 859 857 856 854 850 849 848 847 847 845 846 852 858 859 859 856 857 867 875 879 884 884 885 885 883 881 877 873 874 872 868 866 863 855 851 860 862 852 851 857 863 874 880 883 884 883 885 887 889 891 892 893 893 893 893 893 892
842 843 843 844 844 845 844 844 844 843 842 842 843 843 845 846 848 856 860 861 865 867 865 867 866 865 867 867 866 864 862 859 859 859 855 851 849 847 851 852 848 851 863 870 866 859 857 866 881 887 888 890 889 889 888 882 878 874 873 874 870 867 866 861 857 853 856 861 854 851 854 862 877 882 883 886 885 887 889 891 893 893 894 894 893 893 892 891
843 843 844 844 844 844 844 844 843 843 842 842 842 844 846 846 847 851 854 861 868 867 867 868 867 867 868 867 867 865 864 862 860 859 857 855 850 852 858 858 857 863 867 867 862 855 860 874 886 891 894 894 891 889 884 879 875 872 872 873 870 869 864 857 855 853 857 859 852 851 853 862 878 883 884 886 887 890 891 892 895 895 895 895 893 893 890 889
843 844 844 844 845 844 844 844 843 843 843 842 843 844 846 848 849 849 849 857 866 869 869 867 867 869 868 867 868 866 865 868 867 864 863 860 858 862 864 862 864 868 867 862 857 858 866 879 888 895 896 890 885 882 881 877 872 872 875 876 876 875 872 865 858 854 855 856 854 853 851 861 880 884 886 890 890 893 895 895 897 895 895 894 892 891 889 887
844 844 844 844 845 844 844 844 844 844 844 844 844 845 848 849 850 850 852 860 866 868 869 868 869 870 869 870 870 868 868 873 874 872 871 867 866 867 868 871 868 866 873 871 865 869 878 887 893 895 890 883 878 877 881 879 871 874 881 883 881 878 877 874 863 856 850 850 857 853 842 852 874 882 886 892 892 894 897 897 896 895 893 892 890 888 886 885
844 844 844 845 844 845 844 844 845 845 845 846 846 847 849 849 850 849 852 862 866 867 868 869 869 870 871 871 870 871 871 873 877 877 876 874 872 869 871 876 870 867 878 879 870 873 883 892 894 889 883 879 877 877 884 886 874 873 881 884 884 880 877 872 864 861 851 847 855 853 848 851 860 875 886 889 893 895 898 897 894 893 891 889 887 884 884 883
844 844 845 844 844 845 844 845 846 846 846 847 848 849 849 849 851 849 852 861 867 869 869 867 869 871 872 872 873 872 870 873 879 879 877 876 874 872 870 874 875 873 881 882 876 878 886 893 892 886 881 878 877 878 886 890 877 872 880 882 881 878 874 869 866 866 858 854 853 851 861 859 849 867 886 888 893 897 897 896 892 891 890 888 886 883 882 881
844 844 844 844 845 844 843 845 846 846 847 848 848 849 849 850 850 849 854 864 870 873 872 869 871 874 874 877 875 871 873 877 878 878 878 877 876 873 871 876 877 877 885 882 874 881 888 888 888 886 881 878 880 880 884 890 882 877 881 882 879 874 870 869 869 865 857 855 853 848 861 863 853 869 888 888 894 898 895 893 891 890 889 887 885 883 882 881
844 844 844 844 844 843 844 845 845 847 846 847 849 849 850 850 850 850 857 870 877 875 875 874 874 875 878 880 877 877 884 886 881 879 880 878 877 873 873 881 882 881 887 879 872 886 893 889 890 888 882 882 885 885 885 888 885 881 881 880 878 872 867 868 868 862 856 859 859 851 857 864 860 874 890 888 891 896 893 891 891 889 888 886 885 883 882 880
844 844 843 843 843 843 844 844 845 846 846 848 849 849 850 849 850 853 861 874 879 876 878 877 874 879 882 882 883 887 890 889 887 886 882 880 878 876 878 887 887 884 885 879 878 892 895 893 896 891 887 889 889 886 886 887 887 884 882 878 874 869 866 865 864 859 856 862 864 856 859 867 864 870 883 885 888 895 893 890 890 888 887 886 885 883 881 878
844 843 843 843 843 843 843 844 846 846 847 848 848 850 850 849 853 860 867 875 878 879 881 879 880 888 887 882 885 892 893 893 896 892 885 884 881 879 884 888 886 883 882 880 883 893 897 898 899 894 892 893 890 886 886 889 888 883 878 873 867 865 863 862 867 869 865 862 862 858 860 866 866 867 874 883 892 898 896 892 889 888 887 886 884 883 880 876
844 843 842 842 842 843 844 845 846 846 847 848 849 850 849 853 860 865 873 879 880 881 882 885 891 895 893 891 890 894 895 895 899 895 888 888 886 883 885 887 888 881 875 879 883 888 895 895 893 895 897 895 889 885 887 889 887 881 876 872 866 863 862 860 863 872 876 867 859 857 861 866 868 870 877 889 896 897 896 894 890 888 887 885 883 881 878 876
843 843 842 842 842 843 843 845 846 847 848 848 850 849 851 860 865 869 879 881 880 885 889 892 896 897 899 899 897 900 899 896 900 902 899 897 898 900 898 901 901 884 873 883 886 881 886 892 893 895 898 896 887 880 882 883 881 880 878 879 883 881 881 879 872 871 873 866 859 859 866 870 868 871 882 892 894 894 894 893 891 889 888 885 883 880 877 875
844 843 843 842 843 843 844 846 847 847 848 849 849 850 856 862 869 883 890 882 883 895 899 900 900 901 900 893 896 904 902 900 901 904 906 903 901 906 907 912 912 895 882 889 893 883 880 888 892 892 892 893 889 884 886 885 884 888 890 894 901 907 914 910 892 882 876 866 859 862 871 874 868 871 883 890 890 892 892 891 890 889 887 885 882 880 877 875
845 844 844 844 844 845 846 847 848 848 849 849 849 854 861 864 877 894 892 887 895 902 903 904 900 898 897 894 901 907 899 900 905 903 901 900 899 903 907 910 914 912 901 897 905 903 888 883 888 891 891 892 894 897 898 895 894 895 895 898 902 911 927 923 907 905 897 874 862 868 878 879 875 878 883 886 889 891 889 889 889 887 886 884 881 879 877 875
846 846 845 846 846 846 847 848 848 849 849 850 853 858 863 870 883 891 888 893 901 899 902 907 898 889 892 898 908 911 901 899 904 905 903 903 906 910 915 916 917 920 910 898 909 913 894 883 890 896 898 896 897 903 903 897 896 893 891 899 903 904 911 914 911 913 903 878 865 872 875 869 873 882 884 886 889 889 888 888 887 886 884 883 880 878 877 875
847 847 846 847 847 848 848 848 849 850 850 851 854 861 873 883 889 890 893 899 900 899 898 898 893 886 886 893 901 906 906 903 902 902 905 912 914 916 922 923 924 926 917 907 915 915 895 882 888 896 899 900 902 902 902 901 897 893 896 905 908 905 905 908 904 892 887 882 873 874 875 867 871 880 883 887 888 885 887 887 886 885 883 882 880 878 877 876
847 848 848 849 849 848 849 849 850 850 851 852 857 873 890 898 900 900 904 905 905 906 896 886 893 897 892 893 896 899 903 902 899 896 900 909 913 918 925 925 927 930 925 921 921 922 913 893 887 896 897 899 907 904 901 907 902 898 907 908 905 907 905 907 910 895 889 893 884 880 885 880 878 883 881 885 888 885 885 885 883 883 881 881 880 878 879 877
847 848 849 850 849 850 850 849 850 852 852 857 872 891 900 901 905 908 909 908 907 906 894 886 898 907 903 898 898 905 906 896 894 897 898 901 908 920 926 923 926 930 931 929 919 922 927 902 886 900 901 897 905 903 898 905 905 903 910 910 909 912 905 909 924 916 907 910 897 885 888 883 880 884 882 884 888 886 883 882 882 881 881 880 879 879 879 877
847 848 850 852 851 850 851 850 852 852 851 861 880 894 899 903 909 913 914 912 907 900 894 895 904 907 908 906 903 911 913 902 898 901 899 899 906 920 927 924 925 928 931 931 921 922 928 911 891 897 903 898 897 897 894 899 905 905 908 913 916 918 916 922 932 928 926 930 914 895 891 886 879 880 884 888 888 885 884 883 882 882 882 881 880 880 879 878
847 848 851 853 851 851 852 850 852 855 859 873 888 895 900 905 910 917 919 915 908 901 897 901 905 903 906 912 911 913 916 913 908 903 901 907 910 916 927 930 926 927 932 932 927 925 926 918 900 889 892 893 890 894 896 899 907 907 908 918 922 919 918 919 925 932 938 936 925 917 910 892 878 879 886 888 886 886 887 886 884 883 883 882 882 882 880 879
848 849 852 853 852 852 851 852 864 875 880 888 894 898 902 904 906 915 920 918 912 908 905 904 904 903 906 909 912 915 916 914 914 909 907 911 909 910 924 932 928 929 930 926 926 927 923 919 910 897 889 884 887 900 902 901 908 909 909 920 926 924 920 918 922 932 938 935 934 938 926 896 877 878 885 886 886 888 888 887 885 883 882 882 882 882 881 880
848 850 853 852 851 851 851 862 885 894 889 891 896 898 902 903 904 910 915 915 912 908 908 907 907 908 909 909 912 917 915 912 912 912 911 912 912 914 925 935 935 934 930 923 925 931 928 924 920 908 892 885 895 908 907 906 909 909 913 921 925 926 927 928 929 929 932 934 930 932 924 895 873 875 881 884 886 888 888 887 886 883 883 883 882 882 881 881
849 851 853 852 851 852 853 867 890 895 894 900 903 903 905 904 904 908 910 909 908 906 905 907 910 909 910 913 915 915 913 912 912 912 913 916 918 923 932 938 938 934 928 922 926 932 930 926 920 900 882 888 907 914 913 915 911 906 915 923 925 931 935 935 935 937 940 936 927 927 918 888 868 871 878 881 885 888 887 887 886 884 883 883 882 881 881 880
852 852 854 852 850 851 852 861 878 892 899 902 901 902 904 905 905 905 905 905 907 906 902 906 912 910 913 918 916 914 913 910 910 915 918 917 920 928 935 939 937 930 924 922 925 928 923 915 910 896 883 887 898 901 904 907 904 903 917 930 933 937 941 937 940 948 945 929 923 927 911 880 868 872 876 880 885 887 886 886 886 886 884 883 882 881 881 881
851 853 855 854 852 853 858 865 872 884 895 894 893 899 901 903 909 908 906 909 913 911 905 908 914 913 917 921 916 917 919 911 909 917 922 921 923 930 934 937 936 930 928 931 930 927 921 914 910 907 904 902 898 894 893 894 896 903 916 931 938 941 942 938 936 939 932 920 921 923 903 878 870 873 876 881 885 886 885 884 884 886 885 884 882 881 882 881
849 851 853 855 857 861 870 878 874 876 886 885 887 899 899 898 908 912 909 910 914 915 910 911 917 915 915 916 912 913 918 917 915 916 919 920 921 929 934 934 935 932 930 935 933 928 927 924 916 911 911 910 905 899 894 894 901 905 910 923 935 942 946 941 932 926 923 921 916 908 898 886 876 875 878 883 887 887 885 883 883 884 884 883 883 883 883 881
849 853 859 858 859 863 871 878 876 874 880 879 882 896 898 897 904 908 908 910 913 915 912 913 916 911 908 910 908 909 915 920 918 915 918 923 924 929 934 933 933 932 932 933 932 929 925 919 918 919 914 909 905 901 899 903 906 908 911 920 930 938 943 942 935 925 923 924 909 892 895 896 884 879 883 887 889 889 886 887 887 885 885 884 884 884 883 881
853 860 871 866 861 866 869 873 878 879 881 883 890 898 897 895 899 900 903 910 913 913 909 907 912 911 909 910 905 903 911 912 911 915 921 925 927 927 929 931 931 931 931 931 931 931 923 916 925 931 920 912 912 907 903 905 908 910 915 919 923 929 935 938 935 924 923 926 912 894 896 897 887 884 889 891 892 891 889 889 889 887 886 885 885 885 883 881
860 864 874 873 870 878 882 881 882 879 879 885 892 897 893 890 894 901 907 908 906 911 908 899 904 912 914 914 907 902 905 902 901 912 919 922 926 926 923 924 927 930 930 927 931 937 926 917 930 939 928 916 911 905 905 908 910 912 915 915 918 923 927 929 926 921 920 920 909 899 899 898 891 889 892 891 891 892 891 889 889 888 886 885 886 885 883 881
855 855 865 870 875 886 889 887 881 873 879 886 884 891 896 889 890 903 910 904 897 904 909 900 903 915 917 916 911 904 906 905 902 910 917 917 921 923 919 916 920 929 930 927 934 938 927 920 933 943 931 909 900 902 906 906 907 909 911 913 918 921 922 921 919 917 916 911 905 903 901 895 889 890 891 890 889 889 889 889 888 887 885 886 886 884 882 881
849 851 855 857 871 886 886 885 883 872 875 881 880 890 896 889 890 899 906 911 905 901 906 903 904 916 920 918 913 907 910 914 910 912 917 916 915 917 918 917 919 924 926 930 935 935 928 926 934 941 925 899 893 900 899 902 913 919 916 914 916 919 917 914 912 910 909 908 905 904 900 890 886 889 890 888 888 888 888 889 888 886 885 886 886 884 882 880
850 853 852 850 866 888 888 884 883 873 873 883 886 893 894 890 897 897 894 908 916 910 911 910 906 911 913 911 910 910 914 917 917 919 921 919 919 920 920 921 922 922 924 930 936 938 935 927 927 936 922 892 885 895 898 903 905 899 900 903 906 910 910 905 904 902 901 906 907 903 898 890 888 890 889 887 888 889 889 889 888 886 886 887 887 885 882 880